This demonstration page uses our WeatherBlox Daily Observations layout. Learn more.

Left ArrowRight Arrow

40.92501, -98.34201

Hourly Observations for August 8, 2022

Temp ( °F °C ) Dew Point ( °F °C ) Humidity (%) Winds ( mph kmh ) Pressure ( in mb ) Visibility ( mi km ) Precip ( " mm )
12:53 am 00:53 Clear 65 18.3 60 15.6 84 84 N 7 11 30.10 1019 10 16 0.00 0.00
1:48 am 01:48 Mostly Cloudy 64 18 61 16 88 88 N 5 7 30.09 1019 10 16 0.00 0.00
1:53 am 01:53 Mostly Cloudy 65 18.3 60 15.6 84 84 N 5 7 30.12 1020 10 16 0.00 0.00
2:20 am 02:20 Cloudy 65 18.3 60 15.6 84 84 N 8 13 30.09 1019 10 16 0.00 0.00
2:53 am 02:53 Cloudy 64 17.8 59 15 84 84 NNW 13 20 30.11 1020 10 16 0.00 0.00
3:53 am 03:53 Cloudy 64 17.8 59 15 84 84 NNW 7 11 30.12 1020 10 16 0.00 0.00
4:39 am 04:39 Partly Cloudy 62 16.7 58 14.4 86 86 NW 7 11 30.10 1019 10 16 0.00 0.00
4:53 am 04:53 Mostly Clear 61 16.1 58 14.4 90 90 NW 9 15 30.13 1020 10 16 0.00 0.00
5:53 am 05:53 Clear 59 15 57 13.9 93 93 NW 6 9 30.14 1021 10 16 0.00 0.00
6:53 am 06:53 Sunny 59 15 56 13.3 90 90 N 7 11 30.14 1021 10 16 0.00 0.00
7:05 am 07:05 Partly Cloudy 58 14.4 56 13.3 93 93 N 10 17 30.12 1020 10 16 0.00 0.00
7:41 am 07:41 Cloudy 59 15 56 13.3 90 90 N 13 20 30.10 1019 7 11 0.00 0.00
7:53 am 07:53 Cloudy 59 15 56 13.3 90 90 N 12 19 30.12 1020 10 16 0.00 0.00
8:20 am 08:20 Cloudy 61 16.1 57 13.9 87 87 NNE 7 11 30.11 1020 10 16 0.00 0.00
8:53 am 08:53 Partly Cloudy 63 17.2 56 13.3 78 78 NNE 9 15 30.16 1021 10 16 0.00 0.00
9:18 am 09:18 Mostly Cloudy 63 17.2 56 13.3 78 78 NE 6 9 30.15 1021 10 16 0.00 0.00
9:53 am 09:53 Mostly Sunny 66 18.9 55 12.8 68 68 NE 10 17 30.17 1022 10 16 0.00 0.00
10:53 am 10:53 Sunny 68 20 55 12.8 63 63 VRB 6 9 30.19 1022 10 16 0.00 0.00
11:53 am 11:53 Sunny 72 22.2 55 12.8 55 55 NE 9 15 30.19 1022 10 16 0.00 0.00
12:53 pm 12:53 Sunny 74 23.3 56 13.3 53 53 E 9 15 30.16 1022 10 16 0.00 0.00
1:53 pm 13:53 Sunny 76 24.4 57 13.9 52 52 E 8 13 30.14 1021 10 16 0.00 0.00
2:53 pm 14:53 Sunny 79 26.1 58 14.4 49 49 ENE 13 20 30.12 1020 10 16 0.00 0.00
3:53 pm 15:53 Sunny 79 26.1 58 14.4 49 49 NNE 9 15 30.11 1020 10 16 0.00 0.00
4:53 pm 16:53 Sunny 80 26.7 58 14.4 47 47 VRB 7 11 30.09 1019 10 16 0.00 0.00
5:53 pm 17:53 Sunny 80 26.7 58 14.4 47 47 ENE 5 7 30.08 1019 10 16 0.00 0.00
6:53 pm 18:53 Sunny 79 26.1 58 14.4 49 49 Calm 30.07 1018 10 16 0.00 0.00
7:53 pm 19:53 Sunny 77 25 58 14.4 52 52 E 6 9 30.07 1018 10 16 0.00 0.00
8:53 pm 20:53 Clear 71 21.7 61 16.1 70 70 ESE 3 6 30.09 1019 10 16 0.00 0.00
9:53 pm 21:53 Clear 68 20 61 16.1 78 78 ESE 6 9 30.10 1019 10 16 0.00 0.00
10:53 pm 22:53 Clear 66 18.9 59 15 78 78 ESE 6 9 30.12 1020 10 16 0.00 0.00
11:53 pm 23:53 Clear 62 16.7 57 13.9 84 84 S 3 6 30.12 1020 10 16 0.00 0.00

Powered by AerisWeather